COSMOS 2475 (743)

Last updated on July 6, 2021, 3:40 p.m. UTC

1 37869U 11064C   21186.59076265  .00000002  00000-0  00000-0 0  9995
2 37869  64.5901 134.2465 0023925 260.6870  35.6784  2.13102064 75256
UTC
Height (km)
Latitude
Longitude
Inclination
Orbital Period
UTC large
Height (km)
Speed (km/s)
/
Latitude / Longitude
Inclination (degrees)
Orbital Period (minutes)
Azimuth
Elevation
Range (km)
Doppler Factor
iOS Compass Heading
iOS Angle